NOAA 16 DEB

Satellite information

Favourite Embed

Satellite Type and Status

DEBRISIN ORBIT

Key statistics

Satellite NOAA 16 DEB at a glance.

Uptime

9110

Days in orbit

Revolutions

≈ 14.5

Per day

Orbit

SSO

Sun Synchronous Orbit

Inclination

98.8

Latest

Satellite identification and parameters

Extended collection of information and parameters for NOAA 16 DEB.

Object identification

Identified? True

Debris? True

Object name: NOAA 16 DEB

International designator: 2000-055NP

Object number (NORAD): 41539

Object ID (CCSDS): 41539

Country: UNITED STATES OF AMERICA (US)

Current information (Y/N): Y

RCS size: SMALL

Orbital parameters

Period: 99.649 minutes

Inclination: 98.8131 deg

SMA: 7119.923 km

Apoapsis: 756.204 km

Periapsis: 727.372 km

RAAN: 7.6833 deg

Eccentricy: 0.00202479

Argument of periapsis: 247.4127 deg

Mean anomaly: 112.4921 deg

Mean motion: 14.45073069 rev/day

Mean motion (dot): 0.00013587 rev/day2

B* drag term: 0.0038843949 1/REarth

Two-line elements (TLE)

Creation date: Aug. 31, 2025, 2:26 a.m.

Reference frame: TEME

Reference center: EARTH

Epoch: Aug. 30, 2025, 7:01 a.m. UTC

TLE line 0: 0 NOAA 16 DEB

TLE line 1: 1 41539U 00055NP 25242.29241895 .00013587 00000-0 38844-2 0 9990

TLE line 2: 2 41539 98.8131 7.6833 0020248 247.4127 112.4921 14.45073069496440

Live tracking on map

Real-time ground track for satellite NOAA 16 DEB.

In-orbit conjunctions

A list of the most updated potential collisions computed for object NOAA 16 DEB.

Target Orbit TCA Probability of collision Miss distance Type
SL-8 R/B LEO 2025-08-24 02:24:00 0.0001113455 126.0 (m) ROCKET BODY
SL-8 R/B LEO 2025-06-02 05:22:51 0.002089735 60.0 (m) ROCKET BODY
SL-8 R/B LEO 2025-06-01 22:43:52 0.0001065955 94.0 (m) ROCKET BODY
SL-8 R/B LEO 2025-06-01 21:04:07 0.0001304666 192.0 (m) ROCKET BODY
CZ-6A DEB LEO 2025-02-08 19:05:54 0.0002857079 593.0 (m) DEBRIS

Associated space launch

The NOAA K, L and M POES satellites begin the fifth generation of improved environmental monitoring in support of NOAA missions. The instrument payload has significant improvements and additions/deletions. The instrument changes have effected the spacecraft subsystems and data formats.

NOAA 16 DEB was lifted into orbit during the mission ‘Titan II SLV | NOAA 16’, on board a Titan II SLV space rocket.

The launch took place on Sept. 21, 2000, 10:22 a.m. from Space Launch Complex 4W.

For more information about the launch, click the button.

Launch to space Titan II SLV | NOAA 16
Titan II SLV | NOAA 16

Agency: N/A

Status: Launch Successful

Launch date: Sept. 21, 2000, 10:22 a.m. UTC

Rocket: Titan II SLV

Launch pad: Space Launch Complex 4W

Location: Vandenberg SFB, CA, USA

...

Latest news about this satellite

There are no fresh news available about this satellite. Check back as we update our databases every day.


Newsletter sign-up

Weekly statistics, charts and insights to help you stay on top of the space industry.